Terug naar catalogus

DMSP 5D-2 F12 DEB

ActiefSSO
NORAD 41835·DEBRIS·🇺🇸 United States

Gelanceerd Aug 29, 1994 vanaf Vandenberg Space Force Base

Loading…

Volgende Passages (komende 24 uur)

TLE

VersSource: Space-Track

Epoch: Sep 14, 2026, 14:21 UTC

1 41835U 94057F   26257.59838611  .00002423  00000-0  96691-3 0  9994
2 41835  98.9369  13.6182 0018290 342.7321  17.3235 14.29396415512856

Volg DMSP 5D-2 F12 DEB in realtime met AllMySat

Download on the App Store